Tracking 35280 objects as of 7-Sep-2026
HD Live streaming from Space Station
objects crossing your sky now

COBE DEB


COBE DEB is no longer on orbit


NORAD ID: 22770
Int'l Code: 1989-089AF
Launch date: November 18, 1989
Source: United States (US)
Launch site: AIR FORCE WESTERN TEST RANGE (AFWTR)
Decay date: 1998-02-12

Note: This is SATELLITE DEBRIS
Your satellite tracking list
Your tracking list is empty




NASA's NSSDC Master Catalog

Two Line Element Set (TLE):
1 22770U 89089AF  98042.97280789  .00010794  00000-0  10000-3 0  9990
2 22770 099.2074 210.1073 0003638 267.3717 080.6283 15.67790908246324
Source of the keplerian elements: AFSPC